[[{"header":{"parameterUnit":"m.s-1","parameterCategory":1,"la1":30.2991,"la2":30.254,"lo1":-89.0895,"lo2":-89.0444,"dy":0.0017,"dx":0.0017,"nx":28,"ny":28,"refTime":"2025-08-27T09:00:00:Z","depth":0,"parameterNumber":2,"parameterNumberName":"U-component_of_WINDS"},"data":[0,0,0,0,0,0,0,0,0,0,0,0,0,0,0,0,0,0,0,0,0,0,0,0,0,0,0,0,0,0,0,0,0,0,0,0,0,0,0,0,0,0,0,0,0,0,0,0,0,0,0,0,0,0,0,0,0,0,1.1898,1.1899,0,1.1942,1.1942,1.1943,1.2002,1.2003,1.2004,1.2004,1.2045,1.2045,1.2045,0,0,0,0,0,0,0,0,0,0,0,0,0,1.1862,1.1863,1.1898,1.1899,1.1899,1.1942,1.1942,1.1943,1.2001,1.2003,1.2004,1.2005,1.2045,1.2045,1.2045,0,0,0,0,0,0,0,0,0,0,0,0,0,1.1889,1.1863,1.1898,1.1934,1.1937,1.1942,1.1942,1.1943,1.2001,1.2003,1.2004,1.2005,1.2045,1.2045,1.2045,1.2016,0,0,1.2046,1.2046,0,0,0,0,0,0,0,0,1.1887,1.189,1.1928,1.1931,1.1935,1.1968,1.1944,1.1967,1.2001,1.1977,1.2004,1.2006,1.2018,1.202,1.2025,1.2018,1.202,1.2046,1.2046,1.2046,1.2046,0,0,0,0,0,0,0,1.1886,1.1889,1.1915,1.1928,1.1933,1.1946,1.1952,1.1949,1.1988,1.1979,1.1983,1.1988,1.202,1.2024,1.2026,1.2021,1.2046,1.2046,1.2046,1.2046,1.1992,1.1991,0,0,0,0,0,0,1.1879,1.1887,1.1914,1.1917,1.1915,1.1946,1.1952,1.1956,1.1988,1.1995,1.1987,1.1991,1.2023,1.2026,1.2028,1.1996,1.2046,1.2046,1.2046,1.1994,1.1992,1.199,0,0,0,0,0,0,1.1878,1.1881,1.1912,1.1903,1.1908,1.1945,1.1949,1.1956,1.1961,1.1994,1.2001,1.1984,1.2025,1.2028,1.2019,1.1998,1.2046,1.2046,1.1996,1.1993,1.1991,1.1931,0,0,0,0,0,0,1.1877,1.188,1.187,1.1902,1.1908,1.1903,1.1948,1.1956,1.1961,1.1967,1.1994,1.2,1.2026,1.2018,1.2019,1.1999,1.2046,1.1998,1.1994,1.1992,1.1935,1.1927,1.192,0,0,0,0,0,1.1875,1.1851,1.1869,1.1872,1.1897,1.1902,1.1905,1.1937,1.1959,1.1949,1.1971,1.1999,1.2001,1.2017,1.2018,1.1998,1.1999,1.1995,1.1992,1.1938,1.1929,1.192,0,0,0,0,0,0,1.1813,1.1856,1.1877,1.1862,1.1878,1.1912,1.19,1.1926,1.1935,1.1939,1.1978,1.1983,1.1969,1.1983,1.2001,1.1972,1.2004,1.2001,1.1963,1.1954,1.1946,1.1942,1.2047,0,0,0,0,0,1.1798,1.18,1.1837,1.182,1.1828,1.1862,1.1866,1.1889,1.1907,1.1913,1.1934,1.1949,1.1953,1.1955,1.196,1.1939,1.1944,1.1925,1.1918,1.1911,1.1907,1.1895,1.1887,1.1979,1.1979,1.1979,0,0,1.1766,1.179,1.1788,1.1809,1.1824,1.1823,1.1867,1.1865,1.1865,1.1913,1.1906,1.1922,1.1941,1.1925,1.192,1.1936,1.1884,1.1907,1.1902,1.1901,1.1891,1.1882,1.1874,1.1976,1.1977,1.1977,0,0,1.1708,1.1727,1.1715,1.173,1.1753,1.1777,1.1774,1.1804,1.1817,1.1811,1.1847,1.1847,1.1853,1.1865,1.1872,1.182,1.1845,1.1821,1.178,1.1768,1.1761,1.1755,1.1734,1.1727,1.1817,1.1817,1.1817,0,1.1665,1.1667,1.1705,1.1701,1.1708,1.1754,1.1741,1.1753,1.1776,1.178,1.1799,1.1808,1.1824,1.1811,1.1799,1.1804,1.18,1.1816,1.176,1.1754,1.1748,1.1729,1.1721,1.1813,1.1814,1.1814,1.1814,0,1.1612,1.1613,1.1601,1.1624,1.163,1.1621,1.1657,1.1659,1.1682,1.1703,1.1697,1.1718,1.1728,1.1728,1.175,1.1718,1.1728,1.1753,1.1785,1.1736,1.1718,1.1711,1.1809,1.181,1.1811,1.1812,0,0,1.1513,1.1559,1.1553,1.1564,1.1594,1.1595,1.1588,1.16,1.16,1.1615,1.1609,1.1615,1.1638,1.1646,1.167,1.166,1.1616,1.1687,1.1688,1.1671,1.158,1.1559,1.155,1.1634,1.1633,1.1632,1.1578,0,1.1458,1.1451,1.1486,1.1468,1.1469,1.1513,1.1508,1.1525,1.1545,1.1547,1.157,1.1572,1.1604,1.1609,1.1601,1.1623,1.1597,1.1628,1.1627,1.1626,1.1618,1.1541,1.1519,1.1466,1.1571,1.157,1.1569,0,1.1393,1.1406,1.1389,1.142,1.1422,1.1416,1.143,1.1433,1.1453,1.1468,1.1478,1.1507,1.1501,1.1535,1.1527,1.1546,1.1549,1.1559,1.1558,1.1557,1.1593,1.1535,1.145,1.1441,1.1559,1.156,1.1561,0,1.1319,1.1333,1.1325,1.1333,1.137,1.1365,1.1379,1.1401,1.1406,1.1418,1.1421,1.1432,1.1437,1.1444,1.1474,1.1496,1.1462,1.1499,1.1473,1.1472,1.1461,1.1461,1.1373,1.1467,1.1467,1.1467,1.1467,0,1.1253,1.124,1.1292,1.1287,1.1274,1.1314,1.13,1.1319,1.1338,1.1336,1.1376,1.1372,1.1415,1.1416,1.144,1.1429,1.1431,1.1442,1.1448,1.1437,1.1435,1.1437,1.144,1.1465,1.1466,1.1466,1.1466,0,1.1167,1.1202,1.1196,1.1232,1.1241,1.1229,1.126,1.1255,1.1279,1.1276,1.1278,1.1314,1.1318,1.135,1.136,1.1377,1.1355,1.137,1.1348,1.1352,1.1324,1.1325,1.1231,1.122,1.1324,1.1323,1.1322,0,1.1121,1.1113,1.1149,1.1152,1.1165,1.1168,1.1174,1.1214,1.1218,1.1241,1.1233,1.1241,1.1248,1.1252,1.1278,1.1286,1.1299,1.1266,1.1301,1.129,1.1296,1.1295,1.1294,1.1258,1.1256,1.1255,1.1254,0,1.1035,1.1053,1.1061,1.1075,1.1081,1.1094,1.1108,1.1108,1.1151,1.1154,1.1159,1.1165,1.1177,1.1183,1.1196,1.121,1.1238,1.1244,1.1238,1.1225,1.1212,1.1217,1.1326,1.1245,1.1246,1.1247,1.1247,1.1248,1.0966,1.0961,1.0986,1.0993,1.1009,1.1022,1.102,1.1044,1.105,1.1063,1.1087,1.1088,1.1108,1.1129,1.1141,1.1141,1.1158,1.115,1.1148,1.1144,1.1138,1.1215,1.1144,1.1145,1.1145,1.1145,1.1145,0,1.088,1.0899,1.0906,1.0926,1.0932,1.0962,1.098,1.0981,1.0983,1.1001,1.1008,1.1014,1.102,1.1048,1.1057,1.1052,1.1065,1.1053,1.1052,1.1054,1.1123,1.1126,1.1042,1.1042,1.1042,1.1042,1.1042,1.1042,1.0836,1.0828,1.0849,1.0849,1.0868,1.0871,1.0878,1.089,1.0905,1.091,1.0916,1.0935,1.0956,1.0968,1.0974,1.0982,1.0982,1.0965,1.0977,1.104,1.105,1.1059,1.1062,1.0965,1.0965,1.0908,1.0907,1.0907]},{"header":{"parameterUnit":"m.s-1","parameterCategory":1,"la1":30.2991,"la2":30.254,"lo1":-89.0895,"lo2":-89.0444,"dy":0.0017,"dx":0.0017,"nx":28,"ny":28,"refTime":"2025-08-27T09:00:00:Z","depth":0,"parameterNumber":3,"parameterNumberName":"V-component_of_WINDS"},"data":[0,0,0,0,0,0,0,0,0,0,0,0,0,0,0,0,0,0,0,0,0,0,0,0,0,0,0,0,0,0,0,0,0,0,0,0,0,0,0,0,0,0,0,0,0,0,0,0,0,0,0,0,0,0,0,0,0,0,1.6004,1.6005,0,1.6085,1.6086,1.6087,1.6118,1.6118,1.6117,1.6117,1.6199,1.6202,1.6204,0,0,0,0,0,0,0,0,0,0,0,0,0,1.5873,1.5876,1.6004,1.6005,1.6006,1.6085,1.6086,1.6087,1.6118,1.6118,1.6117,1.6117,1.6198,1.6201,1.6204,0,0,0,0,0,0,0,0,0,0,0,0,0,1.594,1.5876,1.6004,1.6031,1.6034,1.6085,1.6086,1.6088,1.6118,1.6118,1.6117,1.6117,1.6198,1.6201,1.6205,1.6234,0,0,1.6216,1.6217,0,0,0,0,0,0,0,0,1.5936,1.5945,1.6026,1.6029,1.6033,1.6091,1.607,1.6137,1.6118,1.6086,1.6117,1.6117,1.6164,1.617,1.6186,1.6238,1.6242,1.6216,1.6218,1.622,1.6221,0,0,0,0,0,0,0,1.5931,1.5941,1.6036,1.6027,1.6031,1.6038,1.6047,1.6083,1.6126,1.6089,1.6091,1.6101,1.6165,1.6182,1.6188,1.6243,1.6216,1.6219,1.6221,1.6223,1.632,1.632,0,0,0,0,0,0,1.5922,1.5937,1.6034,1.6039,1.5983,1.6041,1.6051,1.6073,1.6126,1.6133,1.6101,1.6102,1.6176,1.6184,1.6191,1.6227,1.622,1.6223,1.6225,1.6319,1.632,1.632,0,0,0,0,0,0,1.592,1.5931,1.6031,1.5989,1.6002,1.6043,1.6068,1.6075,1.6092,1.6135,1.6142,1.611,1.6176,1.6186,1.6223,1.6231,1.6225,1.6228,1.6319,1.6319,1.632,1.6301,0,0,0,0,0,0,1.5916,1.593,1.5942,1.5989,1.6004,1.6062,1.6068,1.6076,1.6098,1.61,1.6146,1.6153,1.6177,1.6217,1.6226,1.6235,1.6231,1.6318,1.6319,1.632,1.6301,1.6301,1.6301,0,0,0,0,0,1.5911,1.5934,1.5943,1.5954,1.6021,1.6062,1.6071,1.6098,1.6099,1.6111,1.6138,1.6151,1.6228,1.622,1.6231,1.6242,1.6318,1.6319,1.632,1.6301,1.6301,1.6301,0,0,0,0,0,0,1.5888,1.5941,1.5951,1.599,1.6021,1.6067,1.6084,1.6097,1.6129,1.613,1.6162,1.6172,1.6205,1.6227,1.6218,1.6271,1.6274,1.6277,1.6256,1.6256,1.6256,1.625,1.6234,0,0,0,0,0,1.5888,1.5917,1.5962,1.5992,1.6007,1.6042,1.6062,1.6079,1.6113,1.6126,1.6156,1.6188,1.6219,1.6239,1.627,1.6304,1.6313,1.6316,1.6316,1.6315,1.6318,1.6335,1.6336,1.6323,1.6323,1.6323,0,0,1.5887,1.5919,1.5937,1.5988,1.6014,1.6043,1.6053,1.6084,1.6106,1.6131,1.6167,1.619,1.6227,1.6262,1.6278,1.6281,1.6323,1.6317,1.6316,1.6319,1.6336,1.6337,1.6338,1.6324,1.6324,1.6324,0,0,1.5901,1.5929,1.5956,1.5981,1.6021,1.6044,1.605,1.6093,1.6109,1.6146,1.6164,1.6189,1.6243,1.6268,1.6287,1.6306,1.6319,1.6315,1.6315,1.6331,1.6332,1.6333,1.6338,1.634,1.6317,1.6317,1.6317,0,1.5895,1.594,1.5968,1.5997,1.6018,1.6042,1.6068,1.6092,1.6139,1.6152,1.6154,1.6219,1.6246,1.6286,1.629,1.6306,1.6313,1.6311,1.633,1.6331,1.6332,1.6338,1.634,1.6317,1.6317,1.6317,1.6317,0,1.593,1.5961,1.5978,1.6022,1.6045,1.6073,1.6103,1.6123,1.6138,1.616,1.6195,1.6228,1.6265,1.6275,1.6291,1.6317,1.6317,1.6324,1.6327,1.6332,1.6338,1.634,1.6315,1.6316,1.6316,1.6316,0,0,1.5934,1.5991,1.5997,1.6016,1.6059,1.6083,1.611,1.6146,1.6162,1.6192,1.6215,1.6258,1.6264,1.6286,1.6304,1.6319,1.6329,1.6324,1.6325,1.6323,1.6357,1.6352,1.6354,1.6338,1.6338,1.6339,1.6354,0,1.5952,1.6003,1.6028,1.6068,1.6095,1.6116,1.6139,1.6168,1.6188,1.6214,1.6236,1.6266,1.6272,1.6285,1.63,1.6325,1.6337,1.6324,1.6358,1.6359,1.6349,1.6357,1.6352,1.6365,1.6356,1.6357,1.6357,0,1.5982,1.6011,1.6053,1.6091,1.6103,1.6125,1.6158,1.6182,1.6214,1.6227,1.625,1.6267,1.6295,1.6296,1.6334,1.6324,1.6339,1.6353,1.6354,1.6359,1.6359,1.6361,1.637,1.6371,1.6361,1.6361,1.6361,0,1.5978,1.6029,1.606,1.6076,1.6121,1.6135,1.6154,1.6185,1.6204,1.6233,1.6245,1.6276,1.6294,1.6317,1.6341,1.6339,1.6376,1.6379,1.6387,1.6386,1.6395,1.6394,1.6405,1.6404,1.6404,1.6404,1.6404,0,1.5996,1.6021,1.6059,1.6078,1.6105,1.6132,1.6158,1.6179,1.6206,1.6228,1.6248,1.6269,1.63,1.6323,1.6342,1.637,1.6378,1.6389,1.6393,1.6387,1.6385,1.6398,1.6397,1.6405,1.6405,1.6405,1.6405,0,1.5997,1.6024,1.6059,1.6098,1.6108,1.6126,1.6159,1.6178,1.6198,1.6226,1.6234,1.6267,1.6296,1.6322,1.636,1.6373,1.6401,1.6407,1.639,1.6392,1.6399,1.6398,1.6419,1.6422,1.6419,1.6419,1.6419,0,1.6007,1.6026,1.6066,1.6083,1.6101,1.6128,1.6147,1.6173,1.6192,1.6227,1.6241,1.6271,1.6297,1.6342,1.6368,1.6397,1.6404,1.6409,1.6408,1.64,1.6403,1.6401,1.6402,1.6409,1.6408,1.6408,1.6408,0,1.602,1.6032,1.6058,1.6089,1.6111,1.6136,1.6162,1.6174,1.6205,1.6225,1.6254,1.6274,1.6312,1.6341,1.6373,1.6392,1.6405,1.6408,1.6411,1.6405,1.6394,1.6399,1.6389,1.6408,1.6408,1.6408,1.6408,1.6408,1.6025,1.6042,1.6073,1.6101,1.6123,1.6146,1.6165,1.6187,1.6212,1.6246,1.6259,1.6289,1.6317,1.6361,1.6379,1.6402,1.6404,1.641,1.6411,1.6412,1.641,1.639,1.6408,1.6408,1.6408,1.6408,1.6408,0,1.6039,1.6059,1.6085,1.612,1.6141,1.6151,1.618,1.6197,1.6223,1.6249,1.6273,1.6305,1.6333,1.6361,1.6389,1.6402,1.6409,1.6409,1.6408,1.6412,1.6406,1.64,1.6403,1.6403,1.6403,1.6403,1.6403,1.6403,1.6048,1.6077,1.6092,1.6131,1.6151,1.618,1.6195,1.6216,1.6237,1.6272,1.6295,1.6313,1.6339,1.6369,1.6394,1.6401,1.6411,1.6409,1.6418,1.6412,1.6412,1.6413,1.6407,1.6411,1.6411,1.6421,1.6422,1.6422]}]]